Погода в Сейняйоки

Финляндия     62°47′53″N   22°52′16″E
В апреле 2022 года жителям России запретили посещать сайт meteo.paraplan.net по решению Генеральной прокуратуры. Аудитория сайта уменьшилась в 10 раз. Владельцы сайта не видят смысла в поддержке погодного сервера в таких условиях. Сайт будет закрыт в октябре.
темп.,
°C
ветер,
м/с
пор.,
м/с
влажн.,
%
обл.,
%
осадки,
мм/ч
давл.,
гПа
погр.,
м
30 сентября, пт
пт3000:00+5св2494100 0.1 1007545
03:00+5св2497100 0.3 1007419
06:00+5св1397100 0.2 1007229
09:00+5св1297100 0.2 1007141
12:00+6св0093100 0.3 1008119
15:00+7с118894 0.4 1008294
18:00+6ссз1293100 0.2 100881
21:00+5зсз1196100 0.4 100980
1 октября, сб
сб100:00+4юз119698 0.1 101032
03:00+3юз249686 0.1 1010115
06:00+2ю22975 0.0 101033
09:00+3ююв24945 0.0 1010120
12:00+8ююв367988 0.0 1009451
15:00+9ююв498289 0.0 1008573
18:00+9ююв41188100 0.1 1007642
21:00+8ю31195100 0.2 1007398
2 октября, вс
вс200:00+7ю31195100 0.0 1007354
03:00+6ююв3109574 0.0 1007280
06:00+5ююв399667 0.0 1007200
09:00+6ююв31090100 0.0 1007272
12:00+11ююв486760 0.0 1007576
15:00+13ю455769 0.0 10071071
18:00+11ююв2673100 0.0 1007194
21:00+10ююв3976100 0.0 1007393
3 октября, пн
пн300:00+9ююв3978100 0.0 1007366
03:00+8юв3884100 0.0 1007321
06:00+6вюв3992100 0.0 1007288
09:00+7вюв31192100 1.0 1007595
12:00+8юв41193100 4.7 1008739
15:00+8юв41092100 9.3 1009643
18:00+8юв41090100 0.1 1009504
21:00+8юв3892100 0.3 1010339
4 октября, вт
вт400:00+7в2491100 0.0 1010111
03:00+4св229599 0.0 101034
06:00+4с289797 0.0 1010178
09:00+5с31195100 0.0 1009367
12:00+8с4108394 0.0 1008634
15:00+10с497794 0.0 1008989
18:00+8с498211 0.0 1008776
21:00+5ссз310948 0.0 1009413